QPF
0.00 0.00 0.00 0.00 0.00 0.00 0.00 0.00 0.00 0.00 0.00 0.00 0.00 0.00 0.00 0.00 0.01 0.01 0.01 0.01 0.00 0.00 0.01 0.01 0.01 0.01 0.01 0.01 0.01 0.00 0.00 0.00 0.00 0.00 0.00 0.01 0.02 0.01 0.01 0.00 0.00 0.01 0.01
0.00 0.00 0.00 0.00 0.00 0.00 0.00 0.00 0.00 0.00 0.00 0.00 0.01 0.01 0.01 0.01 0.02 0.01 0.01 0.01 0.01 0.01 0.01 0.01 0.01 0.01 0.01 0.00 0.00 0.00 0.00 0.00 0.00 0.00 0.00 0.00 0.00 0.00 0.00 0.00 0.00 0.01 0.01
0.00 0.00 0.00 0.00 0.00 0.00 0.00 0.00 0.00 0.00 0.00 0.01 0.01 0.01 0.01 0.02 0.02 0.01 0.02 0.02 0.01 0.01 0.01 0.01 0.01 0.01 0.00 0.00 0.00 0.00 0.00 0.00 0.00 0.00 0.00 0.00 0.00 0.00 0.00 0.00 0.00 0.01 0.01
0.00 0.00 0.00 0.00 0.00 0.00 0.00 0.00 0.00 0.00 0.01 0.01 0.02 0.02 0.02 0.02 0.02 0.02 0.03 0.01 0.01 0.01 0.01 0.01 0.01 0.00 0.00 0.00 0.00 0.00 0.00 0.00 0.00 0.00 0.00 0.00 0.00 0.00 0.00 0.00 0.00 0.00 0.00
0.01 0.01 0.00 0.01 0.01 0.00 0.00 0.00 0.00 0.01 0.01 0.02 0.02 0.03 0.03 0.03 0.03 0.03 0.02 0.01 0.01 0.01 0.00 0.00 0.00 0.00 0.00 0.00 0.00 0.00 0.00 0.00 0.00 0.00 0.00 0.00 0.00 0.00 0.00 0.00 0.00 0.00 0.00
0.02 0.01 0.02 0.02 0.01 0.01 0.00 0.00 0.00 0.01 0.01 0.02 0.03 0.04 0.03 0.03 0.05 0.03 0.01 0.01 0.00 0.00 0.00 0.00 0.00 0.00 0.00 0.00 0.00 0.00 0.00 0.00 0.00 0.00 0.00 0.00 0.00 0.00 0.00 0.00 0.00 0.00 0.00
0.03 0.02 0.03 0.04 0.04 0.02 0.01 0.01 0.00 0.01 0.01 0.02 0.03 0.04 0.04 0.04 0.05 0.02 0.01 0.00 0.00 0.00 0.00 0.00 0.00 0.00 0.00 0.00 0.00 0.00 0.00 0.00 0.00 0.00 0.00 0.00 0.00 0.00 0.00 0.00 0.00 0.00 0.00
0.05 0.04 0.04 0.05 0.04 0.03 0.02 0.02 0.01 0.01 0.02 0.03 0.04 0.05 0.05 0.05 0.04 0.02 0.00 0.00 0.00 0.00 0.00 0.00 0.00 0.00 0.00 0.00 0.00 0.00 0.00 0.00 0.00 0.00 0.00 0.00 0.00 0.00 0.00 0.00 0.00 0.00 0.00
0.12 0.08 0.07 0.08 0.07 0.05 0.05 0.03 0.01 0.02 0.03 0.04 0.05 0.05 0.05 0.04 0.03 0.01 0.00 0.00 0.00 0.00 0.00 0.00 0.00 0.00 0.00 0.00 0.00 0.00 0.00 0.00 0.00 0.00 0.00 0.00 0.00 0.00 0.00 0.00 0.00 0.00 0.00
0.23 0.21 0.15 0.12 0.11 0.08 0.06 0.04 0.03 0.03 0.03 0.05 0.05 0.05 0.03 0.02 0.02 0.01 0.00 0.00 0.00 0.00 0.00 0.00 0.00 0.00 0.00 0.00 0.00 0.00 0.00 0.00 0.00 0.00 0.00 0.00 0.00 0.00 0.00 0.00 0.00 0.00 0.00
0.27 0.30 0.30 0.24 0.17 0.11 0.06 0.04 0.04 0.04 0.05 0.05 0.05 0.04 0.03 0.02 0.01 0.00 0.00 0.00 0.00 0.00 0.00 0.00 0.00 0.00 0.00 0.00 0.00 0.00 0.00 0.00 0.00 0.00 0.00 0.00 0.00 0.00 0.00 0.00 0.00 0.00 0.00
0.30 0.30 0.34 0.32 0.26 0.19 0.11 0.06 0.05 0.05 0.05 0.04 0.03 0.03 0.02 0.01 0.01 0.00 0.00 0.00 0.00 0.00 0.00 0.00 0.00 0.00 0.00 0.00 0.00 0.00 0.00 0.00 0.00 0.00 0.00 0.00 0.00 0.00 0.00 0.00 0.00 0.00 0.00
0.23 0.29 0.33 0.35 0.33 0.28 0.18 0.11 0.08 0.06 0.06 0.05 0.04 0.03 0.02 0.01 0.00 0.00 0.00 0.00 0.00 0.00 0.00 0.00 0.00 0.00 0.00 0.00 0.00 0.00 0.00 0.00 0.00 0.00 0.00 0.00 0.00 0.00 0.00 0.00 0.00 0.00 0.00
0.18 0.22 0.27 0.31 0.34 0.37 0.29 0.18 0.11 0.08 0.07 0.05 0.04 0.04 0.03 0.01 0.00 0.00 0.00 0.00 0.00 0.00 0.00 0.00 0.00 0.00 0.00 0.00 0.00 0.00 0.00 0.00 0.00 0.00 0.00 0.00 0.00 0.00 0.00 0.00 0.00 0.00 0.00
0.17 0.21 0.21 0.26 0.30 0.39 0.42 0.32 0.20 0.12 0.09 0.07 0.06 0.05 0.04 0.02 0.01 0.00 0.00 0.00 0.00 0.00 0.00 0.00 0.00 0.00 0.00 0.00 0.00 0.00 0.00 0.00 0.00 0.00 0.00 0.00 0.00 0.00 0.00 0.00 0.00 0.00 0.00
0.17 0.23 0.23 0.24 0.27 0.36 0.45 0.45 0.33 0.20 0.14 0.13 0.10 0.08 0.05 0.04 0.03 0.01 0.00 0.00 0.00 0.00 0.00 0.00 0.00 0.00 0.00 0.00 0.00 0.00 0.00 0.00 0.00 0.00 0.00 0.00 0.00 0.00 0.00 0.00 0.00 0.00 0.00
0.17 0.22 0.24 0.26 0.28 0.34 0.40 0.47 0.41 0.29 0.21 0.15 0.12 0.09 0.07 0.05 0.04 0.02 0.01 0.01 0.01 0.01 0.01 0.00 0.00 0.00 0.00 0.00 0.00 0.00 0.00 0.00 0.00 0.00 0.00 0.00 0.00 0.00 0.00 0.00 0.00 0.00 0.01
0.14 0.19 0.22 0.22 0.25 0.29 0.30 0.37 0.44 0.37 0.28 0.20 0.13 0.08 0.07 0.05 0.04 0.02 0.01 0.01 0.01 0.01 0.01 0.01 0.01 0.00 0.00 0.00 0.00 0.00 0.00 0.00 0.00 0.00 0.00 0.00 0.00 0.00 0.00 0.00 0.00 0.00 0.00
0.13 0.16 0.19 0.19 0.21 0.24 0.29 0.32 0.36 0.39 0.35 0.27 0.17 0.09 0.06 0.05 0.04 0.03 0.01 0.01 0.01 0.02 0.02 0.02 0.01 0.01 0.00 0.00 0.00 0.00 0.00 0.00 0.00 0.00 0.00 0.00 0.00 0.00 0.00 0.00 0.00 0.00 0.00
0.13 0.15 0.18 0.17 0.20 0.24 0.30 0.34 0.37 0.40 0.38 0.33 0.25 0.16 0.09 0.07 0.05 0.03 0.02 0.01 0.01 0.01 0.01 0.01 0.01 0.01 0.01 0.01 0.01 0.01 0.01 0.01 0.00 0.00 0.00 0.00 0.00 0.00 0.00 0.00 0.00 0.00 0.00
0.16 0.14 0.15 0.17 0.18 0.23 0.30 0.34 0.37 0.40 0.37 0.34 0.28 0.25 0.17 0.12 0.09 0.06 0.03 0.02 0.01 0.01 0.01 0.01 0.02 0.02 0.02 0.02 0.02 0.01 0.01 0.01 0.00 0.00 0.00 0.01 0.01 0.00 0.00 0.00 0.00 0.00 0.00
0.17 0.15 0.16 0.17 0.18 0.21 0.26 0.31 0.36 0.40 0.39 0.37 0.31 0.28 0.22 0.15 0.13 0.12 0.09 0.05 0.03 0.02 0.02 0.02 0.02 0.02 0.02 0.02 0.02 0.02 0.01 0.01 0.01 0.01 0.01 0.01 0.01 0.00 0.01 0.01 0.01 0.00 0.00
0.18 0.16 0.17 0.19 0.18 0.22 0.27 0.34 0.38 0.42 0.42 0.41 0.38 0.33 0.26 0.19 0.16 0.14 0.12 0.11 0.09 0.06 0.05 0.04 0.04 0.03 0.03 0.03 0.03 0.03 0.02 0.01 0.01 0.01 0.01 0.01 0.01 0.01 0.01 0.00 0.00 0.00 0.00
0.19 0.18 0.19 0.21 0.20 0.24 0.33 0.37 0.45 0.44 0.38 0.34 0.32 0.33 0.29 0.23 0.19 0.16 0.13 0.12 0.10 0.10 0.09 0.08 0.07 0.07 0.07 0.07 0.07 0.06 0.04 0.03 0.02 0.02 0.01 0.01 0.01 0.01 0.01 0.00 0.00 0.00 0.00
0.18 0.18 0.22 0.25 0.24 0.25 0.30 0.33 0.41 0.42 0.37 0.31 0.31 0.33 0.32 0.27 0.21 0.16 0.13 0.12 0.12 0.11 0.11 0.10 0.10 0.10 0.09 0.08 0.08 0.09 0.08 0.07 0.05 0.03 0.02 0.01 0.01 0.01 0.01 0.00 0.00 0.00 0.00
0.19 0.20 0.22 0.25 0.28 0.30 0.34 0.35 0.40 0.44 0.41 0.34 0.30 0.29 0.27 0.25 0.23 0.19 0.15 0.13 0.12 0.11 0.10 0.11 0.11 0.11 0.11 0.10 0.10 0.09 0.09 0.08 0.06 0.05 0.03 0.02 0.01 0.01 0.00 0.00 0.00 0.00 0.00
MSLP
1010.50 1010.29 1010.26 1010.40 1010.66 1010.99 1011.32 1011.60 1011.82 1011.98 1012.09 1012.21 1012.37 1012.60 1012.91 1013.28 1013.67 1014.04 1014.36 1014.61 1014.80 1014.93 1015.05 1015.18 1015.34 1015.54 1015.77 1016.01 1016.22 1016.40 1016.53 1016.61 1016.65 1016.68 1016.70 1016.74 1016.78 1016.83 1016.86 1016.87 1016.85 1016.80 1016.73
1010.36 1010.24 1010.29 1010.49 1010.78 1011.12 1011.45 1011.72 1011.93 1012.07 1012.19 1012.32 1012.50 1012.76 1013.09 1013.47 1013.87 1014.25 1014.58 1014.84 1015.03 1015.18 1015.32 1015.46 1015.64 1015.85 1016.07 1016.30 1016.50 1016.66 1016.78 1016.85 1016.90 1016.94 1016.99 1017.05 1017.11 1017.16 1017.20 1017.21 1017.19 1017.14 1017.07
1010.06 1010.05 1010.19 1010.46 1010.80 1011.18 1011.52 1011.81 1012.02 1012.18 1012.30 1012.45 1012.64 1012.91 1013.24 1013.63 1014.02 1014.40 1014.72 1014.98 1015.18 1015.35 1015.51 1015.69 1015.89 1016.11 1016.35 1016.58 1016.78 1016.94 1017.05 1017.13 1017.19 1017.25 1017.31 1017.38 1017.45 1017.51 1017.56 1017.57 1017.55 1017.51 1017.45
1009.70 1009.80 1010.02 1010.36 1010.77 1011.18 1011.56 1011.86 1012.09 1012.26 1012.40 1012.56 1012.76 1013.03 1013.36 1013.72 1014.10 1014.45 1014.76 1015.02 1015.24 1015.43 1015.63 1015.84 1016.07 1016.33 1016.59 1016.84 1017.05 1017.21 1017.34 1017.43 1017.50 1017.56 1017.63 1017.71 1017.78 1017.84 1017.88 1017.89 1017.88 1017.85 1017.81
1009.39 1009.56 1009.87 1010.27 1010.72 1011.17 1011.57 1011.90 1012.14 1012.31 1012.46 1012.62 1012.83 1013.09 1013.40 1013.75 1014.10 1014.44 1014.74 1014.99 1015.22 1015.44 1015.67 1015.92 1016.20 1016.49 1016.78 1017.06 1017.29 1017.48 1017.62 1017.72 1017.80 1017.87 1017.93 1018.00 1018.05 1018.10 1018.13 1018.14 1018.14 1018.13 1018.12
1009.23 1009.45 1009.80 1010.24 1010.72 1011.19 1011.59 1011.91 1012.14 1012.32 1012.46 1012.62 1012.82 1013.08 1013.38 1013.72 1014.06 1014.38 1014.67 1014.93 1015.17 1015.41 1015.67 1015.95 1016.27 1016.60 1016.92 1017.23 1017.48 1017.70 1017.85 1017.97 1018.06 1018.13 1018.19 1018.23 1018.27 1018.29 1018.31 1018.31 1018.31 1018.32 1018.34
1009.27 1009.51 1009.88 1010.33 1010.80 1011.24 1011.62 1011.91 1012.12 1012.27 1012.40 1012.55 1012.76 1013.02 1013.33 1013.66 1014.01 1014.33 1014.62 1014.89 1015.14 1015.39 1015.67 1015.98 1016.31 1016.67 1017.01 1017.34 1017.62 1017.84 1018.02 1018.16 1018.25 1018.32 1018.37 1018.40 1018.42 1018.42 1018.42 1018.42 1018.42 1018.44 1018.49
1009.52 1009.75 1010.10 1010.52 1010.96 1011.35 1011.67 1011.90 1012.06 1012.17 1012.29 1012.44 1012.65 1012.93 1013.26 1013.62 1013.98 1014.32 1014.63 1014.90 1015.16 1015.42 1015.71 1016.01 1016.35 1016.71 1017.06 1017.39 1017.67 1017.91 1018.10 1018.25 1018.36 1018.43 1018.48 1018.51 1018.51 1018.51 1018.49 1018.48 1018.49 1018.52 1018.58
1009.92 1010.12 1010.43 1010.80 1011.17 1011.49 1011.73 1011.89 1011.99 1012.06 1012.16 1012.31 1012.54 1012.84 1013.21 1013.61 1014.00 1014.37 1014.70 1014.99 1015.25 1015.51 1015.79 1016.08 1016.40 1016.73 1017.06 1017.38 1017.66 1017.90 1018.09 1018.25 1018.37 1018.46 1018.52 1018.55 1018.56 1018.56 1018.55 1018.54 1018.54 1018.58 1018.65
1010.36 1010.52 1010.79 1011.10 1011.40 1011.64 1011.80 1011.89 1011.93 1011.96 1012.04 1012.19 1012.44 1012.79 1013.20 1013.64 1014.07 1014.48 1014.83 1015.13 1015.40 1015.65 1015.90 1016.17 1016.45 1016.75 1017.04 1017.32 1017.58 1017.81 1018.00 1018.16 1018.30 1018.40 1018.49 1018.55 1018.58 1018.59 1018.59 1018.59 1018.60 1018.64 1018.70
1010.76 1010.88 1011.10 1011.36 1011.60 1011.77 1011.87 1011.90 1011.89 1011.89 1011.96 1012.12 1012.39 1012.76 1013.21 1013.69 1014.16 1014.59 1014.97 1015.29 1015.56 1015.80 1016.03 1016.26 1016.51 1016.76 1017.01 1017.24 1017.46 1017.66 1017.84 1018.00 1018.15 1018.28 1018.39 1018.48 1018.54 1018.59 1018.61 1018.63 1018.65 1018.68 1018.74
1011.03 1011.13 1011.33 1011.55 1011.75 1011.88 1011.94 1011.93 1011.89 1011.88 1011.94 1012.11 1012.39 1012.77 1013.24 1013.73 1014.23 1014.68 1015.07 1015.40 1015.67 1015.91 1016.12 1016.33 1016.54 1016.75 1016.95 1017.15 1017.32 1017.49 1017.64 1017.79 1017.94 1018.08 1018.22 1018.34 1018.44 1018.52 1018.57 1018.61 1018.65 1018.68 1018.73
1011.14 1011.25 1011.43 1011.65 1011.83 1011.95 1012.00 1011.98 1011.94 1011.93 1011.99 1012.15 1012.43 1012.81 1013.26 1013.75 1014.24 1014.69 1015.08 1015.42 1015.70 1015.94 1016.15 1016.35 1016.54 1016.72 1016.89 1017.04 1017.17 1017.30 1017.42 1017.55 1017.68 1017.82 1017.97 1018.12 1018.25 1018.36 1018.44 1018.51 1018.56 1018.61 1018.66
1011.11 1011.22 1011.42 1011.64 1011.84 1011.98 1012.04 1012.05 1012.03 1012.03 1012.08 1012.24 1012.49 1012.84 1013.26 1013.72 1014.17 1014.60 1014.99 1015.32 1015.61 1015.86 1016.09 1016.30 1016.48 1016.65 1016.80 1016.92 1017.02 1017.11 1017.20 1017.29 1017.39 1017.52 1017.66 1017.81 1017.96 1018.09 1018.20 1018.29 1018.36 1018.43 1018.49
1010.94 1011.08 1011.30 1011.55 1011.78 1011.95 1012.06 1012.10 1012.12 1012.13 1012.20 1012.33 1012.55 1012.85 1013.21 1013.61 1014.02 1014.41 1014.78 1015.11 1015.41 1015.68 1015.93 1016.16 1016.37 1016.55 1016.69 1016.80 1016.87 1016.93 1016.98 1017.03 1017.10 1017.20 1017.31 1017.45 1017.59 1017.73 1017.85 1017.96 1018.06 1018.15 1018.23
1010.70 1010.85 1011.09 1011.36 1011.63 1011.85 1012.01 1012.10 1012.15 1012.20 1012.27 1012.38 1012.56 1012.80 1013.10 1013.43 1013.78 1014.13 1014.47 1014.79 1015.10 1015.40 1015.68 1015.94 1016.18 1016.38 1016.54 1016.65 1016.72 1016.76 1016.77 1016.79 1016.82 1016.88 1016.96 1017.07 1017.19 1017.32 1017.45 1017.57 1017.69 1017.80 1017.92
1010.40 1010.56 1010.81 1011.11 1011.40 1011.65 1011.85 1011.99 1012.08 1012.15 1012.23 1012.33 1012.48 1012.67 1012.90 1013.17 1013.47 1013.78 1014.09 1014.41 1014.73 1015.05 1015.36 1015.66 1015.93 1016.16 1016.35 1016.48 1016.55 1016.59 1016.59 1016.59 1016.59 1016.61 1016.66 1016.74 1016.83 1016.94 1017.06 1017.19 1017.32 1017.46 1017.61
1010.08 1010.24 1010.49 1010.78 1011.08 1011.35 1011.57 1011.74 1011.86 1011.95 1012.04 1012.13 1012.26 1012.42 1012.62 1012.85 1013.11 1013.39 1013.69 1014.00 1014.33 1014.66 1015.00 1015.32 1015.63 1015.89 1016.10 1016.26 1016.36 1016.41 1016.43 1016.42 1016.42 1016.42 1016.44 1016.49 1016.56 1016.64 1016.75 1016.88 1017.02 1017.18 1017.36
1009.76 1009.91 1010.13 1010.40 1010.68 1010.93 1011.15 1011.32 1011.45 1011.56 1011.66 1011.76 1011.89 1012.04 1012.24 1012.46 1012.71 1012.98 1013.28 1013.59 1013.92 1014.26 1014.61 1014.95 1015.27 1015.56 1015.80 1015.99 1016.13 1016.22 1016.27 1016.29 1016.30 1016.30 1016.32 1016.35 1016.40 1016.47 1016.56 1016.68 1016.82 1016.99 1017.20
1009.48 1009.61 1009.79 1010.00 1010.23 1010.44 1010.62 1010.77 1010.89 1011.00 1011.11 1011.23 1011.38 1011.56 1011.78 1012.02 1012.29 1012.58 1012.89 1013.20 1013.53 1013.87 1014.21 1014.55 1014.87 1015.17 1015.44 1015.67 1015.85 1015.99 1016.09 1016.16 1016.21 1016.24 1016.28 1016.31 1016.35 1016.41 1016.49 1016.59 1016.73 1016.90 1017.11
1009.30 1009.39 1009.51 1009.65 1009.80 1009.93 1010.04 1010.14 1010.24 1010.33 1010.45 1010.60 1010.79 1011.02 1011.28 1011.57 1011.88 1012.20 1012.52 1012.85 1013.17 1013.49 1013.81 1014.13 1014.44 1014.75 1015.03 1015.29 1015.52 1015.72 1015.89 1016.02 1016.12 1016.20 1016.27 1016.32 1016.37 1016.42 1016.49 1016.59 1016.71 1016.88 1017.09
1009.28 1009.33 1009.38 1009.43 1009.48 1009.51 1009.53 1009.56 1009.60 1009.68 1009.80 1009.97 1010.20 1010.48 1010.81 1011.16 1011.51 1011.86 1012.20 1012.52 1012.83 1013.13 1013.41 1013.70 1014.00 1014.29 1014.59 1014.87 1015.15 1015.40 1015.63 1015.82 1015.99 1016.12 1016.22 1016.31 1016.38 1016.44 1016.51 1016.60 1016.72 1016.87 1017.07
1009.49 1009.49 1009.48 1009.44 1009.37 1009.29 1009.22 1009.16 1009.13 1009.17 1009.28 1009.47 1009.73 1010.06 1010.43 1010.82 1011.22 1011.59 1011.94 1012.25 1012.53 1012.79 1013.04 1013.29 1013.55 1013.83 1014.12 1014.42 1014.72 1015.02 1015.30 1015.55 1015.76 1015.95 1016.09 1016.21 1016.31 1016.39 1016.47 1016.56 1016.68 1016.82 1017.00
1009.99 1009.95 1009.86 1009.73 1009.56 1009.38 1009.20 1009.05 1008.95 1008.94 1009.02 1009.21 1009.48 1009.83 1010.23 1010.64 1011.04 1011.42 1011.74 1012.02 1012.26 1012.48 1012.68 1012.88 1013.11 1013.37 1013.65 1013.96 1014.28 1014.60 1014.90 1015.18 1015.43 1015.65 1015.83 1015.98 1016.10 1016.22 1016.32 1016.43 1016.56 1016.71 1016.88
1010.78 1010.69 1010.55 1010.34 1010.09 1009.81 1009.54 1009.31 1009.15 1009.08 1009.12 1009.28 1009.54 1009.87 1010.26 1010.65 1011.02 1011.36 1011.64 1011.86 1012.04 1012.20 1012.35 1012.52 1012.71 1012.94 1013.21 1013.51 1013.82 1014.14 1014.45 1014.74 1015.00 1015.23 1015.43 1015.61 1015.77 1015.92 1016.06 1016.21 1016.37 1016.54 1016.72
1011.81 1011.69 1011.50 1011.24 1010.92 1010.58 1010.25 1009.95 1009.73 1009.61 1009.60 1009.72 1009.93 1010.21 1010.54 1010.87 1011.17 1011.43 1011.63 1011.77 1011.88 1011.97 1012.07 1012.19 1012.35 1012.56 1012.80 1013.08 1013.38 1013.68 1013.96 1014.24 1014.49 1014.72 1014.93 1015.13 1015.33 1015.53 1015.73 1015.93 1016.14 1016.36 1016.57
Thickness
5772 5774 5772 5770 5769 5769 5769 5769 5769 5767 5766 5764 5763 5762 5761 5759 5758 5756 5754 5752 5750 5748 5746 5744 5742 5741 5739 5737 5736 5734 5732 5731 5730 5729 5729 5728 5728 5727 5726 5725 5725 5724 5723
5774 5770 5768 5765 5764 5765 5765 5764 5764 5763 5762 5761 5760 5758 5757 5756 5754 5753 5751 5749 5747 5745 5743 5741 5739 5737 5735 5734 5732 5730 5729 5727 5726 5726 5725 5725 5724 5724 5723 5723 5722 5721 5720
5767 5765 5762 5760 5759 5758 5759 5759 5759 5759 5758 5757 5756 5755 5754 5752 5751 5749 5748 5746 5744 5742 5740 5738 5736 5734 5732 5730 5728 5727 5725 5724 5723 5722 5722 5722 5721 5721 5720 5719 5719 5718 5717
5761 5759 5757 5754 5752 5752 5752 5753 5753 5753 5753 5753 5752 5751 5750 5749 5747 5746 5744 5743 5741 5739 5736 5734 5732 5730 5728 5726 5725 5724 5722 5721 5720 5719 5719 5719 5718 5717 5717 5716 5715 5714 5713
5753 5752 5750 5748 5746 5745 5745 5746 5747 5747 5748 5748 5748 5747 5746 5745 5744 5742 5740 5739 5737 5735 5733 5730 5729 5727 5725 5723 5722 5720 5719 5718 5717 5716 5716 5715 5715 5714 5713 5712 5712 5711 5709
5744 5744 5743 5742 5740 5739 5738 5739 5740 5741 5742 5742 5743 5742 5742 5741 5740 5738 5736 5734 5732 5731 5728 5727 5725 5723 5722 5720 5719 5717 5716 5715 5714 5713 5712 5712 5712 5711 5710 5709 5708 5707 5706
5735 5736 5735 5735 5733 5733 5732 5732 5733 5734 5735 5736 5737 5737 5737 5736 5735 5734 5732 5730 5728 5726 5725 5723 5721 5720 5719 5717 5716 5715 5713 5712 5711 5710 5709 5709 5708 5708 5706 5705 5704 5703 5702
5727 5727 5727 5726 5726 5726 5726 5726 5727 5728 5729 5730 5730 5731 5731 5731 5730 5728 5727 5725 5724 5722 5721 5719 5718 5716 5715 5714 5713 5711 5710 5709 5708 5707 5706 5706 5705 5704 5703 5702 5701 5700 5698
5716 5717 5717 5718 5718 5718 5719 5719 5720 5721 5722 5723 5724 5724 5725 5725 5724 5723 5722 5720 5719 5718 5716 5715 5714 5713 5712 5711 5709 5708 5707 5706 5705 5704 5703 5702 5702 5701 5700 5698 5697 5696 5695
5704 5707 5708 5709 5709 5710 5711 5712 5713 5714 5715 5717 5717 5717 5718 5718 5718 5717 5716 5715 5714 5713 5712 5711 5710 5709 5708 5707 5706 5705 5704 5703 5702 5701 5700 5700 5699 5698 5697 5695 5694 5693 5691
5691 5695 5698 5699 5700 5701 5702 5704 5705 5706 5708 5709 5710 5710 5711 5711 5711 5710 5710 5710 5709 5708 5707 5706 5705 5705 5704 5703 5703 5701 5700 5699 5699 5698 5697 5697 5696 5695 5694 5692 5691 5689 5688
5679 5684 5688 5690 5691 5692 5693 5695 5697 5698 5700 5701 5702 5703 5703 5704 5704 5704 5704 5704 5703 5703 5702 5701 5701 5700 5700 5699 5699 5698 5697 5696 5696 5695 5694 5694 5693 5692 5691 5689 5688 5686 5685
5668 5674 5679 5682 5683 5684 5685 5686 5688 5690 5691 5693 5694 5696 5696 5696 5696 5697 5697 5697 5697 5697 5697 5696 5695 5695 5695 5695 5695 5695 5694 5693 5692 5692 5691 5690 5690 5688 5687 5686 5684 5683 5681
5656 5664 5668 5672 5674 5676 5677 5679 5680 5683 5684 5686 5687 5689 5690 5690 5690 5691 5691 5691 5692 5692 5691 5691 5691 5690 5690 5690 5691 5690 5690 5690 5689 5689 5688 5687 5686 5685 5684 5683 5681 5680 5678
5646 5652 5658 5661 5665 5668 5669 5670 5673 5675 5678 5680 5680 5682 5684 5685 5685 5685 5685 5685 5686 5686 5686 5686 5685 5685 5685 5686 5686 5686 5686 5686 5686 5685 5684 5683 5682 5681 5680 5679 5678 5676 5675
5636 5642 5647 5652 5655 5658 5661 5662 5665 5668 5670 5672 5674 5676 5678 5680 5680 5679 5679 5679 5680 5680 5681 5681 5681 5681 5681 5681 5681 5682 5682 5682 5682 5681 5680 5679 5678 5677 5676 5675 5674 5672 5671
5626 5633 5638 5642 5646 5650 5653 5655 5658 5662 5664 5666 5668 5669 5671 5674 5675 5675 5674 5674 5675 5675 5675 5675 5675 5675 5675 5675 5676 5677 5677 5678 5677 5677 5676 5674 5674 5673 5672 5671 5669 5668 5666
5618 5624 5630 5635 5638 5641 5645 5648 5652 5656 5658 5661 5662 5663 5665 5668 5669 5669 5669 5670 5670 5670 5670 5670 5669 5669 5669 5670 5670 5671 5671 5672 5672 5671 5671 5669 5668 5667 5666 5665 5664 5662 5660
5610 5616 5621 5626 5631 5634 5638 5642 5645 5649 5652 5655 5657 5658 5660 5662 5663 5665 5665 5665 5664 5664 5664 5665 5664 5664 5663 5664 5664 5664 5665 5665 5665 5665 5665 5664 5663 5662 5660 5659 5657 5656 5654
5603 5609 5613 5618 5622 5626 5630 5634 5637 5642 5646 5649 5652 5654 5655 5657 5658 5659 5659 5659 5659 5658 5658 5658 5658 5658 5658 5657 5657 5657 5657 5657 5658 5659 5658 5657 5656 5655 5654 5652 5650 5648 5647
5594 5600 5605 5610 5615 5619 5623 5626 5630 5634 5640 5643 5646 5649 5650 5651 5653 5654 5654 5653 5653 5653 5653 5653 5652 5651 5650 5650 5648 5646 5647 5649 5649 5650 5650 5650 5649 5648 5647 5645 5643 5641 5639
5588 5594 5599 5604 5609 5614 5618 5622 5626 5630 5634 5638 5641 5642 5643 5645 5647 5648 5648 5648 5648 5647 5646 5646 5646 5644 5644 5644 5641 5636 5634 5636 5639 5642 5642 5642 5641 5640 5639 5637 5635 5633 5631
5581 5588 5594 5598 5604 5609 5614 5617 5620 5624 5627 5630 5633 5636 5638 5639 5641 5642 5643 5642 5642 5642 5641 5641 5641 5640 5638 5637 5638 5634 5629 5628 5630 5631 5632 5632 5632 5631 5630 5629 5628 5626 5623
5577 5583 5588 5593 5599 5604 5608 5612 5615 5619 5623 5627 5631 5632 5632 5634 5635 5636 5636 5636 5636 5636 5635 5635 5635 5635 5633 5630 5629 5631 5630 5629 5624 5621 5621 5622 5622 5622 5621 5620 5619 5618 5615
5572 5577 5583 5588 5592 5597 5603 5607 5610 5613 5618 5621 5625 5625 5626 5627 5628 5629 5629 5630 5629 5629 5629 5629 5628 5628 5628 5627 5625 5623 5622 5621 5621 5617 5614 5613 5612 5613 5613 5612 5610 5609 5607
5566 5571 5577 5583 5587 5592 5597 5601 5605 5608 5612 5615 5617 5619 5620 5621 5621 5622 5622 5622 5623 5623 5623 5623 5622 5622 5622 5622 5621 5620 5619 5617 5615 5613 5610 5607 5605 5604 5604 5603 5601 5600 5598